Weather History for Dallas/Ft Worth, TX

Change the Weather History Date:

Wednesday, February 27, 2013

  Actual Average Record
Temperature  
Mean Temperature 47 °F 53 °F  
Max Temperature 57 °F 63 °F 85 °F (1918)
Min Temperature 37 °F 43 °F 19 °F (2002)
Degree Days  
Heating Degree Days 18 12  
Month to date heating degree days 339 415  
Since 1 July heating degree days 1572 1920  
Cooling Degree Days 0 0  
Month to date cooling degree days 2 0  
Year to date cooling degree days 12 2  
Moisture  
Dew Point 25 °F    
Average Humidity 48    
Maximum Humidity 76    
Minimum Humidity 20    
Precipitation  
Precipitation 0.00 in 0.11 in 1.23 in (1907)
Month to date precipitation 1.68 2.55  
Year to date precipitation 5.74 4.68  
Snow  
Snow 0.00 in 0.00 in 0.50 in (1934)
Month to date snowfall 0.0 0.4  
Since 1 July snowfall 0.8 1.0  
Snow Depth 0.00 in    
Sea Level Pressure  
Sea Level Pressure 30.09 in    
Wind  
Wind Speed 15 mph (NNW)    
Max Wind Speed 25 mph    
Max Gust Speed 32 mph    
Visibility 10 miles    
Events      
T = Trace of Precipitation, MM = Missing Value Source: NWS Daily Summary

Daily Weather History Graph

Daily Weather History Graph

Search for Another Location

Airport:

Trip Planner

Search our weather history database for the weather conditions in past years. The results will help you decide how hot, cold, wet, or windy it might be!

Date:

Astronomy

Feb. 27, 2013 Rise Set
Actual Time 6:58 AM CST 6:23 PM CST
Civil Twilight 6:33 AM CST 6:48 PM CST
Nautical Twilight 6:04 AM CST 7:17 PM CST
Astronomical Twilight 5:36 AM CST 7:45 PM CST
Moon 8:35 PM CST (2/27) 7:43 AM CST (2/27)
Length of Visible Light 12h 15m
Length of Day
11h 25m
Waning Gibbous, 96% of the Moon is Illuminated
Feb 27
Waning Gibbous
Mar 4
Last Quarter
Mar 11
New
Mar 19
First Quarter
Mar 27
Full

Hourly Weather History & Observations

Time (CST) Temp. Windchill Dew Point Humidity Pressure Visibility Wind Dir Wind Speed Gust Speed Precip Events Conditions
12:53 AM 44.1 °F - 30.0 °F 58% 29.91 in 10.0 mi Calm Calm - N/A   Clear
1:53 AM 41.0 °F 38.0 °F 30.0 °F 65% 29.89 in 10.0 mi ENE 4.6 mph - N/A   Partly Cloudy
2:53 AM 39.0 °F 32.8 °F 28.9 °F 67% 29.91 in 10.0 mi North 9.2 mph - N/A   Partly Cloudy
3:53 AM 37.9 °F 31.5 °F 28.9 °F 70% 29.92 in 10.0 mi North 9.2 mph - N/A   Partly Cloudy
4:53 AM 37.9 °F 32.1 °F 30.9 °F 76% 29.94 in 10.0 mi North 8.1 mph - N/A   Partly Cloudy
5:53 AM 37.9 °F 29.6 °F 30.9 °F 76% 29.99 in 10.0 mi North 13.8 mph - N/A   Partly Cloudy
6:53 AM 37.0 °F 28.9 °F 30.9 °F 79% 30.03 in 10.0 mi North 12.7 mph - N/A   Mostly Cloudy
7:53 AM 39.0 °F 32.3 °F 30.0 °F 70% 30.05 in 10.0 mi North 10.4 mph - N/A   Mostly Cloudy
8:53 AM 42.8 °F 35.8 °F 28.4 °F 57% 30.09 in 10.0 mi NNW 13.8 mph - N/A   Partly Cloudy
9:53 AM 45.0 °F 39.3 °F 28.0 °F 52% 30.11 in 10.0 mi NW 11.5 mph - N/A   Partly Cloudy
10:53 AM 50.0 °F - 27.0 °F 41% 30.12 in 10.0 mi NW 11.5 mph - N/A   Partly Cloudy
11:53 AM 53.1 °F - 24.1 °F 32% 30.13 in 10.0 mi NW 15.0 mph 25.3 mph N/A   Clear
12:53 PM 55.0 °F - 16.0 °F 22% 30.12 in 10.0 mi NNW 21.9 mph - N/A   Clear
1:53 PM 55.0 °F - 23.0 °F 29% 30.12 in 10.0 mi WNW 18.4 mph 27.6 mph N/A   Clear
2:53 PM 55.9 °F - 23.0 °F 28% 30.11 in 10.0 mi NNW 20.7 mph - N/A   Partly Cloudy
3:53 PM 57.0 °F - 21.9 °F 26% 30.10 in 10.0 mi NW 19.6 mph - N/A   Partly Cloudy
4:53 PM 55.9 °F - 21.0 °F 26% 30.12 in 10.0 mi NW 20.7 mph 31.1 mph N/A   Partly Cloudy
5:53 PM 54.0 °F - 16.0 °F 22% 30.13 in 10.0 mi NNW 21.9 mph - N/A   Partly Cloudy
6:53 PM 50.0 °F - 19.9 °F 31% 30.15 in 10.0 mi NNW 17.3 mph 25.3 mph N/A   Partly Cloudy
7:53 PM 48.0 °F - 23.0 °F 37% 30.17 in 10.0 mi NW 17.3 mph - N/A   Partly Cloudy
8:53 PM 46.0 °F 38.5 °F 23.0 °F 40% 30.19 in 10.0 mi NNW 19.6 mph 27.6 mph N/A   Partly Cloudy
9:53 PM 44.1 °F 36.8 °F 23.0 °F 43% 30.21 in 10.0 mi NNW 16.1 mph - N/A   Partly Cloudy
10:53 PM 42.1 °F 34.2 °F 24.1 °F 49% 30.22 in 10.0 mi NNW 16.1 mph - N/A   Partly Cloudy
11:53 PM 41.0 °F 31.9 °F 24.1 °F 51% 30.22 in 10.0 mi NNW 19.6 mph 24.2 mph N/A   Partly Cloudy